Weather observations for the past three days for
Tyndall Air Force Base
Imperial (Metric)
Date Time (cdt) Wind (mph) Vis. (mi.) Weather Sky Cond. Temperature (ºF) Relative Humidity Wind Chill (°F) Heat Index (°F) Pressure Precipitation (in)
Air Dwpt 6 hour altimeter (in) sea level (mb) 1 hr 3 hr 6 hr
Max. Min.
22 22:55 W 8 10.00 Fair CLR 83.3 75.6 78% 91 30.02 1016.9
22 21:55 SW 9 10.00 A Few Clouds FEW090 83.7 75.2 76% 92 30.01 1016.5
22 20:55 SW 8 10.00 Fair CLR 84 75.2 75% 92 30 1016.2
22 19:55 SW 9 10.00 A Few Clouds FEW075 84.6 76.1 76% 94 29.99 1015.9
22 18:55 SW 12 10.00 Fair CLR 86.5 76.3 93.7 86.5 72% 97 29.98 1015.5
22 17:55 SW 14 10.00 Fair CLR 88.5 76.1 67% 100 29.96 1014.8
22 16:55 SW 14 10.00 Fair CLR 89.1 75.2 64% 99 29.96 1014.8
22 15:55 SW 13 10.00 Fair CLR 90.5 74.1 59% 100 29.97 1015.2
22 14:55 SW 13 10.00 Fair CLR 91.8 72.1 53% 100 29.98 1015.5
22 13:55 SW 10 10.00 A Few Clouds FEW210 91.8 72.7 54% 100 30 1016.2
22 12:55 Calm 10.00 Partly Cloudy FEW160 SCT190 93.6 68.4 93.9 77.4 44% 98 30.03 1017.2
22 11:55 Calm 10.00 Fair CLR 92.3 69.1 47% 97 30.05 1017.9
22 10:55 NE 6 10.00 Fair CLR 90.9 69.6 50% 96 30.07 1018.6
22 09:55 NE 6 10.00 Fair CLR 87.8 68.5 53% 92 30.08 1018.9
22 08:55 N 7 10.00 Mostly Cloudy SCT065 BKN085 81.3 70.2 69% 85 30.08 1018.9
22 07:55 N 7 10.00 Partly Cloudy SCT060 77.7 69.1 75% 80 30.08 1018.9
22 06:55 N 5 10.00 Fair CLR 77.9 72.7 78.4 75.6 84% 80 30.06 1018.2
22 05:55 N 5 10.00 Fair CLR 75.9 71.8 87% 76 30.04 1017.5
22 04:55 N 6 10.00 Fair CLR 76.6 72.7 88% 78 30.04 1017.5
22 03:55 N 5 10.00 Fair CLR 77 73.4 89% 78 30.04 1017.5
22 02:55 NW 3 6.00 Fair with Haze CLR 77.7 73.2 86% 80 30.03 1017.2
22 01:55 Calm 10.00 Fair CLR 77.9 73 85% 80 30.05 1017.9
22 00:55 NW 5 10.00 Fair CLR 77.2 72.3 84.2 76.3 85% 79 30.06 1018.2
21 23:55 NW 5 10.00 Fair CLR 76.6 71.8 85% 78 30.08 1018.9
21 22:55 W 5 10.00 Fair CLR 76.5 71.6 85% 77 30.08 1018.9
21 21:55 Calm 10.00 Fair CLR 79.2 72 79% 82 30.07 1018.6
21 20:55 W 3 10.00 Fair CLR 80.4 71.8 75% 84 30.06 1018.2
21 19:55 W 6 10.00 Fair CLR 81.7 71.2 71% 86 30.05 1017.9
21 18:55 W 7 10.00 Fair CLR 84.4 71.2 91.4 84.2 65% 90 30.05 1017.9
21 17:55 SW 10 10.00 Fair CLR 84.7 71.1 64% 90 30.04 1017.5
21 16:55 SW 13 10.00 Fair CLR 86.4 70.7 60% 92 30.05 1017.9
21 15:55 SW 14 10.00 Fair CLR 87.6 70.3 57% 93 30.06 1018.2
21 14:55 SW 6 10.00 Fair CLR 89.1 68.5 51% 93 30.06 1018.2
21 13:55 E 8 10.00 A Few Clouds FEW080 89.6 63.3 42% 91 30.09 1019.2
21 12:55 E 10 G 16 10.00 Partly Cloudy FEW140 SCT170 SCT200 89.6 64 90.3 75.2 43% 91 30.1 1019.6
21 11:55 NE 9 10.00 A Few Clouds FEW170 86.7 64 47% 88 30.12 1020.3
21 10:55 E 15 G 20 10.00 Fair CLR 86.2 63 46% 87 30.12 1020.3
21 09:55 NE 10 10.00 Fair CLR 83.7 66.7 57% 86 30.13 1020.6
21 08:55 NE 10 10.00 Fair CLR 80.2 67.8 66% 83 30.13 1020.6
21 07:55 NE 8 10.00 Fair CLR 77.5 68.2 73% 79 30.14 1020.9
21 06:55 NE 6 10.00 Fair CLR 75 67.3 77.4 73 77% 76 30.15 1021.3
21 05:55 NE 7 10.00 Fair CLR 73.2 67.3 82% 30.14 1020.9
21 04:55 E 8 10.00 Fair CLR 74.5 67.1 78% 30.14 1020.9
21 03:55 E 8 10.00 Fair CLR 75 67.6 78% 76 30.12 1020.3
21 02:55 E 8 10.00 Fair CLR 75.7 68 77% 77 30.11 1019.9
21 01:55 E 7 10.00 Fair CLR 76.3 68.5 77% 78 30.13 1020.6
21 00:55 E 8 10.00 Fair CLR 77.2 68.9 80.6 77 76% 79 30.13 1020.6 0.05
20 23:55 E 7 10.00 Fair CLR 79.9 69.6 71% 83 30.14 1020.9
20 22:55 NE 3 10.00 Fair CLR 79.7 76.1 89% 85 30.13 1020.6
20 21:55 NW 5 10.00 A Few Clouds FEW060 79.5 76.3 90% 84 30.12 1020.3 0.05
20 20:55 NW 6 10.00 Partly Cloudy SCT030 SCT080 79.2 75.6 89% 83 30.11 1019.9
20 19:55 W 3 10.00 Mostly Cloudy FEW033 BKN047 BKN070 79.7 74.3 84% 84 30.1 1019.6 0.05
20 18:55 SW 6 10.00 Light Rain FEW027 SCT046 SCT055 BKN070 BKN090 77.7 73.2 92.3 77.5 86% 80 30.09 1019.2 0.07 0.07
20 17:55 NE 3 10.00 Mostly Cloudy BKN042 BKN095 87.6 72 60% 94 30.09 1019.2
20 16:55 NE 6 10.00 Partly Cloudy SCT095 90.1 71.2 54% 97 30.09 1019.2
20 15:55 E 5 10.00 Mostly Cloudy BKN055 89.4 71.6 56% 96 30.1 1019.6
20 14:55 E 10 10.00 Mostly Cloudy SCT047 SCT070 BKN170 90.7 71.1 53% 97 30.11 1019.9
20 13:55 E 13 G 21 10.00 Partly Cloudy FEW043 SCT060 SCT190 91 72 54% 99 30.12 1020.3
20 12:55 SE 16 10.00 Mostly Cloudy SCT040 BKN130 90.1 71.8 90.1 74.7 55% 97 30.13 1020.6
20 11:55 E 14 G 21 10.00 Partly Cloudy SCT037 SCT050 SCT150 87.3 70.5 58% 93 30.14 1020.9
20 10:55 E 13 10.00 Partly Cloudy SCT031 86 71.4 62% 92 30.15 1021.3
20 09:55 E 12 G 17 10.00 Mostly Cloudy BKN020 BKN044 81 71.1 72% 85 30.14 1020.9
20 08:55 E 12 G 17 10.00 Mostly Cloudy BKN020 BKN044 81 71.1 72% 85 30.14 1020.9
20 07:55 E 13 10.00 Fair CLR 77.5 68.5 74% 79 30.12 1020.3
20 06:55 NE 10 10.00 Fair CLR 74.5 67.5 78.4 73.4 79% 30.12 1020.3
20 05:55 NE 8 10.00 Fair CLR 73.4 67.1 81% 30.1 1019.6
20 04:55 NE 8 10.00 Fair CLR 73.8 66.7 79% 30.09 1019.2
20 03:55 NE 9 10.00 Fair CLR 74.3 65.8 75% 30.09 1019.2
20 02:55 E 7 10.00 Fair CLR 75.4 66 73% 77 30.08 1018.9
20 01:55 E 9 10.00 A Few Clouds FEW150 77.4 65.5 67% 79 30.09 1019.2
20 00:55 E 9 10.00 Fair CLR 78.4 65.1 86.2 78.4 64% 80 30.11 1019.9
19 23:55 E 14 G 20 10.00 Partly Cloudy SCT150 79.2 65.5 63% 81 30.1 1019.6
Date Time (cdt) Wind (mph) Vis. (mi.) Weather Sky Cond. Air Dwpt Max. Min. Relative Humidity Wind Chill (°F) Heat Index (°F) altimeter (in) sea level (mb) 1 hr 3 hr 6 hr
6 hour
Temperature (ºF) Pressure Precipitation (in)